User: anonymous   Login
Location: Ch�tillon
(48.8024°N, 2.2935°E)
Time: 04:11:37
(UTC+00:00)
Language:

SKYMED 2 - Orbit

View from above orbital plane
View from above orbital plane
View from above satellite
View from above satellite

Ground track
Ground track

The orbit data is extracted from the following two-line orbital elements,

1 32376U 07059A   22017.81958223  .00000387  00000-0  55130-4 0  9998
2 32376  97.8809 203.6626 0001572  96.9903 263.1502 14.82154822763394
Epoch (UTC): 17 January 2022 19:40:11
Eccentricity: 0.0001572
inclination: 97.8809°
perigee height: 621 km
apogee height: 623 km
right ascension of ascending node: 203.6626°
argument of perigee: 96.9903°
revolutions per day: 14.82154822
mean anomaly at epoch: 263.1502°
orbit number at epoch: 76339

The dashed part of the orbit path shows where the satellite is in the earth's shadow,  

DLR